When you browse on this site, cookies collect data to enhance your experience and personalize the content and advertising you see.
Visit our Privacy Policy to learn more. By continuing to use the site, you agree to this use of cookies and data.
  • Em Portugal
  • Lista de países
  • Para 7 dias
  • Temperatura da água
  • Mapas de satélite
  • Mapa do tempo
  • Widgets de tempo
  • user-avatar
    Iniciar Sessão

    Previsão horária em Lomnica

    Hoje, 25 Março, Segunda-feira

    Tempo Temperatura Precipitação Vento Pressão Humidade
    00:00 +5°C° 0 mm 2 m/s 730 mmHg 85%
    01:00 +5°C° 0 mm 2 m/s 730 mmHg 90%
    02:00 +4°C° 0 mm 2 m/s 729 mmHg 91%
    03:00 +3°C° 0 mm 2 m/s 729 mmHg 92%
    04:00 +2°C° 0 mm 2 m/s 728 mmHg 93%
    05:00 +2°C° 0 mm 2 m/s 728 mmHg 91%
    06:00 +3°C° 0 mm 2 m/s 728 mmHg 89%
    07:00 +2°C° 0 mm 3 m/s 727 mmHg 85%
    08:00 +3°C° 0 mm 4 m/s 727 mmHg 76%
    09:00 +3°C° 0 mm 5 m/s 727 mmHg 67%
    10:00 +4°C° 0 mm 6 m/s 726 mmHg 58%
    11:00 +4°C° 0.4 mm 6 m/s 726 mmHg 63%
    12:00 +3°C° 0.4 mm 6 m/s 726 mmHg 69%
    13:00 +2°C° 0.4 mm 6 m/s 726 mmHg 75%
    14:00 +3°C° 0.2 mm 6 m/s 726 mmHg 72%
    15:00 +3°C° 0.2 mm 6 m/s 727 mmHg 70%
    16:00 +3°C° 0.2 mm 6 m/s 727 mmHg 67%
    17:00 +2°C° 0 mm 5 m/s 727 mmHg 73%
    18:00 +1°C° 0 mm 4 m/s 728 mmHg 79%
    19:00 +1°C° 0 mm 3 m/s 728 mmHg 85%
    20:00 +1°C° 0 mm 3 m/s 729 mmHg 87%
    21:00 0°C° 0 mm 3 m/s 729 mmHg 89%
    22:00 0°C° 0 mm 3 m/s 730 mmHg 92%
    23:00 0°C° 0 mm 3 m/s 731 mmHg 92%

    Amanhã, 26 Março, Terça-feira

    Tempo Temperatura Precipitação Vento Pressão Humidade
    00:00 0°C° 0 mm 3 m/s 732 mmHg 92%
    01:00 +1°C° 0 mm 3 m/s 732 mmHg 92%
    02:00 0°C° 0 mm 3 m/s 732 mmHg 92%
    03:00 0°C° 0 mm 3 m/s 733 mmHg 93%
    04:00 0°C° 0 mm 3 m/s 733 mmHg 94%
    05:00 0°C° 0 mm 3 m/s 733 mmHg 93%
    06:00 0°C° 0 mm 3 m/s 734 mmHg 91%
    07:00 0°C° 0 mm 3 m/s 734 mmHg 90%
    08:00 +1°C° 0 mm 4 m/s 734 mmHg 82%
    09:00 +3°C° 0 mm 4 m/s 734 mmHg 75%
    10:00 +3°C° 0 mm 5 m/s 734 mmHg 67%
    11:00 +3°C° 0 mm 6 m/s 734 mmHg 68%
    12:00 +3°C° 0 mm 7 m/s 734 mmHg 68%
    13:00 +3°C° 0 mm 7 m/s 734 mmHg 69%
    14:00 +3°C° 0.1 mm 7 m/s 734 mmHg 71%
    15:00 +2°C° 0.1 mm 7 m/s 734 mmHg 73%
    16:00 +2°C° 0.1 mm 7 m/s 734 mmHg 75%
    17:00 0°C° 0.1 mm 7 m/s 734 mmHg 77%
    18:00 +1°C° 0.1 mm 6 m/s 734 mmHg 80%
    19:00 +1°C° 0.1 mm 5 m/s 734 mmHg 82%
    20:00 0°C° 0.1 mm 5 m/s 735 mmHg 83%
    21:00 0°C° 0.1 mm 4 m/s 735 mmHg 85%
    22:00 0°C° 0.1 mm 4 m/s 736 mmHg 86%
    23:00 +1°C° 0 mm 3 m/s 736 mmHg 88%

    Depois de amanhã, 27 Março, Quarta-feira

    Tempo Temperatura Precipitação Vento Pressão Humidade
    00:00 0°C° 0 mm 3 m/s 736 mmHg 91%
    01:00 +1°C° 0 mm 2 m/s 736 mmHg 93%
    02:00 +1°C° 0 mm 2 m/s 736 mmHg 94%
    03:00 +1°C° 0 mm 2 m/s 736 mmHg 94%
    04:00 +1°C° 0 mm 2 m/s 736 mmHg 94%
    05:00 +2°C° 0 mm 2 m/s 737 mmHg 93%
    06:00 +2°C° 0 mm 2 m/s 737 mmHg 91%
    07:00 +1°C° 0 mm 3 m/s 737 mmHg 90%
    08:00 +2°C° 0.2 mm 3 m/s 737 mmHg 87%
    09:00 +3°C° 0.2 mm 3 m/s 737 mmHg 85%
    10:00 +4°C° 0.2 mm 3 m/s 738 mmHg 82%
    11:00 +5°C° 0.1 mm 4 m/s 738 mmHg 80%
    12:00 +5°C° 0.1 mm 4 m/s 738 mmHg 77%
    13:00 +6°C° 0.1 mm 4 m/s 738 mmHg 74%
    14:00 +6°C° 0.1 mm 4 m/s 737 mmHg 75%
    15:00 +6°C° 0.1 mm 4 m/s 737 mmHg 76%
    16:00 +6°C° 0.1 mm 4 m/s 737 mmHg 78%
    17:00 +5°C° 0.1 mm 3 m/s 737 mmHg 82%
    18:00 +5°C° 0.1 mm 3 m/s 738 mmHg 87%
    19:00 +5°C° 0.1 mm 2 m/s 738 mmHg 91%
    20:00 +5°C° 0 mm 2 m/s 738 mmHg 93%
    21:00 +5°C° 0 mm 2 m/s 738 mmHg 94%
    22:00 +5°C° 0 mm 2 m/s 738 mmHg 95%
    23:00 +5°C° 0 mm 2 m/s 738 mmHg 95%

    28 Março, Quinta-feira

    Tempo Temperatura Precipitação Vento Pressão Humidade
    00:00 +4°C° 0 mm 2 m/s 738 mmHg 96%
    01:00 +4°C° 0 mm 2 m/s 739 mmHg 96%
    02:00 +4°C° 0 mm 2 m/s 738 mmHg 96%
    03:00 +4°C° 0 mm 2 m/s 738 mmHg 96%
    04:00 +4°C° 0 mm 2 m/s 738 mmHg 96%
    05:00 +5°C° 0.1 mm 2 m/s 739 mmHg 96%
    06:00 +5°C° 0.1 mm 2 m/s 739 mmHg 96%
    07:00 +5°C° 0.1 mm 2 m/s 739 mmHg 95%
    08:00 +6°C° 0.1 mm 2 m/s 739 mmHg 90%
    09:00 +7°C° 0.1 mm 3 m/s 740 mmHg 85%
    10:00 +8°C° 0.1 mm 3 m/s 740 mmHg 80%
    11:00 +8°C° 0.1 mm 3 m/s 740 mmHg 77%
    12:00 +8°C° 0.1 mm 3 m/s 741 mmHg 74%
    13:00 +9°C° 0.1 mm 3 m/s 741 mmHg 71%
    14:00 +9°C° 0.1 mm 3 m/s 741 mmHg 72%
    15:00 +8°C° 0.1 mm 3 m/s 740 mmHg 73%
    16:00 +8°C° 0.1 mm 3 m/s 740 mmHg 74%
    17:00 +7°C° 0.1 mm 2 m/s 741 mmHg 80%
    18:00 +6°C° 0.1 mm 2 m/s 741 mmHg 85%
    19:00 +6°C° 0.1 mm 1 m/s 741 mmHg 91%
    20:00 +6°C° 0 mm 1 m/s 741 mmHg 92%
    21:00 +5°C° 0 mm 1 m/s 742 mmHg 92%
    22:00 +5°C° 0 mm 1 m/s 742 mmHg 93%
    23:00 +4°C° 0 mm 1 m/s 742 mmHg 93%

    29 Março, Sexta-feira

    Tempo Temperatura Precipitação Vento Pressão Humidade
    00:00 +4°C° 0 mm 1 m/s 742 mmHg 93%
    01:00 +4°C° 0 mm 1 m/s 743 mmHg 93%
    02:00 +4°C° 0 mm 1 m/s 743 mmHg 93%
    03:00 +3°C° 0 mm 1 m/s 743 mmHg 93%
    04:00 +3°C° 0 mm 1 m/s 743 mmHg 93%
    05:00 +4°C° 0 mm 1 m/s 743 mmHg 91%
    06:00 +5°C° 0 mm 1 m/s 743 mmHg 88%
    07:00 +4°C° 0 mm 0 m/s 743 mmHg 86%
    08:00 +7°C° 0 mm 1 m/s 743 mmHg 78%
    09:00 +9°C° 0 mm 1 m/s 743 mmHg 71%
    10:00 +11°C° 0 mm 1 m/s 743 mmHg 63%
    11:00 +12°C° 0 mm 1 m/s 743 mmHg 59%
    12:00 +13°C° 0 mm 1 m/s 743 mmHg 55%
    13:00 +14°C° 0 mm 1 m/s 743 mmHg 51%
    14:00 +14°C° 0 mm 1 m/s 742 mmHg 51%
    15:00 +14°C° 0 mm 1 m/s 742 mmHg 51%
    16:00 +14°C° 0 mm 1 m/s 741 mmHg 50%
    17:00 +12°C° 0 mm 1 m/s 741 mmHg 57%
    18:00 +10°C° 0 mm 1 m/s 741 mmHg 64%
    19:00 +7°C° 0 mm 0 m/s 740 mmHg 71%
    20:00 +7°C° 0 mm 0 m/s 740 mmHg 72%
    21:00 +7°C° 0 mm 0 m/s 740 mmHg 73%
    22:00 +6°C° 0 mm 0 m/s 740 mmHg 75%
    23:00 +7°C° 0 mm 1 m/s 740 mmHg 75%

    30 Março, Sábado

    Tempo Temperatura Precipitação Vento Pressão Humidade
    00:00 +7°C° 0 mm 1 m/s 740 mmHg 76%
    01:00 +6°C° 0 mm 1 m/s 740 mmHg 77%
    02:00 +6°C° 0 mm 1 m/s 740 mmHg 77%
    03:00 +6°C° 0 mm 1 m/s 740 mmHg 78%
    04:00 +6°C° 0 mm 1 m/s 739 mmHg 78%
    05:00 +7°C° 0 mm 1 m/s 739 mmHg 77%
    06:00 +7°C° 0 mm 1 m/s 739 mmHg 76%
    07:00 +8°C° 0 mm 1 m/s 739 mmHg 74%
    08:00 +10°C° 0 mm 1 m/s 739 mmHg 67%
    09:00 +12°C° 0 mm 1 m/s 739 mmHg 59%
    10:00 +14°C° 0 mm 1 m/s 739 mmHg 52%
    11:00 +15°C° 0 mm 1 m/s 738 mmHg 48%
    12:00 +16°C° 0 mm 1 m/s 738 mmHg 45%
    13:00 +17°C° 0 mm 2 m/s 737 mmHg 41%
    14:00 +17°C° 0 mm 2 m/s 736 mmHg 42%
    15:00 +17°C° 0 mm 2 m/s 736 mmHg 43%
    16:00 +17°C° 0 mm 2 m/s 735 mmHg 44%
    17:00 +15°C° 0 mm 2 m/s 734 mmHg 51%
    18:00 +12°C° 0 mm 2 m/s 734 mmHg 59%
    19:00 +9°C° 0 mm 2 m/s 733 mmHg 66%
    20:00 +9°C° 0 mm 2 m/s 733 mmHg 66%
    21:00 +9°C° 0 mm 2 m/s 733 mmHg 66%
    22:00 +8°C° 0 mm 2 m/s 733 mmHg 65%
    23:00 +8°C° 0 mm 2 m/s 732 mmHg 67%
    Mostrar mais